Date String (YYYY-MM-DD hh:mm:ss) UTC,Instrument flags,Ambient pressure (hPa),Sample flow (lpm),Bypass flow (lpm),Sample temperature (°C),Ambient temperature (°C),ASC tube jacket temperature (°C),LED temperature (°C),Box temperature (°C),Sample RH (%),Span deviation,Mass concentration (μg/m³),Mass concentration (μg/m³),Mass concentration (μg/m³)
DateTimeUTC,F1_M11,P_M11,Q1_M11,Q2_M11,T1_M11,T2_M11,T3_M11,T4_M11,T5_M11,U1_M11,ZSPAN_M11,X0_M11,X2_M11,X1_M11
2022-07-09 12:00:00,,0832.8,5.00,0.00,29.9,27.8,00.0,38.7,31.6,25.5,0000.0,0008.97,0004.03,0003.45
2022-07-09 12:01:00,,0832.7,5.01,0.00,29.9,27.9,00.0,38.7,31.6,25.5,0000.0,0009.06,0004.09,0003.50
2022-07-09 12:02:00,,0832.8,5.00,0.00,29.8,28.0,00.0,38.7,31.6,25.6,0000.0,0008.91,0004.17,0003.54
2022-07-09 12:03:00,,0832.8,5.00,0.00,29.8,28.1,00.0,38.7,31.6,25.6,0000.0,0008.84,0004.27,0003.60
2022-07-09 12:04:00,,0832.7,5.00,0.00,29.8,28.2,00.0,38.7,31.7,25.6,0000.0,0008.77,0004.30,0003.65
2022-07-09 12:05:00,,0832.8,5.00,0.00,29.8,28.3,00.0,38.7,31.7,25.5,0000.0,0008.58,0004.36,0003.69
2022-07-09 12:06:00,,0832.8,4.99,0.00,29.8,28.4,00.0,38.7,31.7,25.5,0000.0,0008.62,0004.42,0003.74
2022-07-09 12:07:00,,0832.9,5.01,0.00,29.9,28.5,00.0,38.7,31.7,25.5,0000.0,0009.34,0004.50,0003.78
2022-07-09 12:08:00,,0832.9,5.01,0.00,29.9,28.6,00.0,38.7,31.7,25.6,0000.0,0010.00,0004.57,0003.82
2022-07-09 12:09:00,,0832.9,5.00,0.00,29.9,28.6,00.0,38.7,31.7,25.8,0000.0,0010.07,0004.64,0003.86
2022-07-09 12:10:00,,0832.9,5.01,0.00,29.9,28.7,00.0,38.7,31.8,25.7,0000.0,0010.21,0004.68,0003.88
2022-07-09 12:11:00,,0832.8,5.00,0.00,29.9,28.7,00.0,38.7,31.8,25.7,0000.0,0010.58,0004.67,0003.88
2022-07-09 12:12:00,,0832.8,4.98,0.00,29.9,28.8,00.0,38.7,31.8,25.7,0000.0,0010.53,0004.65,0003.88
2022-07-09 12:13:00,,0832.8,5.00,0.00,30.0,28.8,00.0,38.7,31.8,25.7,0000.0,0010.57,0004.68,0003.88
2022-07-09 12:14:00,,0832.9,5.01,0.00,30.0,28.9,00.0,38.7,31.9,25.7,0000.0,0010.63,0004.69,0003.89
2022-07-09 12:15:00,,0832.9,5.00,0.00,30.0,28.9,00.0,38.8,31.9,25.7,0000.0,0010.79,0004.75,0003.90
2022-07-09 12:16:00,,0832.9,5.00,0.00,30.0,28.9,00.0,38.8,31.9,25.7,0000.0,0012.04,0004.75,0003.90
2022-07-09 12:17:00,,0832.9,5.00,0.00,30.1,29.0,00.0,38.8,31.9,25.4,0000.0,0012.93,0004.78,0003.91
2022-07-09 12:18:00,,0833.0,4.99,0.00,30.1,29.0,00.0,38.8,32.0,25.2,0000.0,0012.42,0004.76,0003.93
2022-07-09 12:19:00,,0833.0,4.99,0.00,30.1,29.0,00.0,38.8,32.0,25.1,0000.0,0012.11,0004.79,0003.94
2022-07-09 12:20:00,,0832.9,4.99,0.00,30.1,29.0,00.0,38.8,32.0,25.0,0000.0,0011.90,0004.80,0003.95
2022-07-09 12:21:00,,0832.9,5.01,0.00,30.1,29.1,00.0,38.9,32.0,24.8,0000.0,0012.28,0004.78,0003.96
2022-07-09 12:22:00,,0832.9,5.00,0.00,30.2,29.1,00.0,38.9,32.0,24.9,0000.0,0012.40,0004.83,0003.96
2022-07-09 12:23:00,,0833.0,5.01,0.00,30.2,29.1,00.0,38.9,32.0,24.9,0000.0,0012.42,0004.86,0003.97
2022-07-09 12:24:00,,0833.0,5.00,0.00,30.2,29.1,00.0,38.9,32.1,24.9,0000.0,0012.84,0004.86,0003.97
2022-07-09 12:25:00,,0833.0,5.01,0.00,30.2,28.5,00.0,38.8,32.0,25.0,0000.0,0013.16,0004.81,0003.98
2022-07-09 12:26:00,,0833.0,5.00,0.00,30.1,27.6,00.0,38.8,31.8,25.2,0000.0,0013.03,0004.77,0003.99
2022-07-09 12:27:00,,0832.9,5.00,0.00,30.1,27.3,00.0,38.8,31.7,25.4,0000.0,0011.91,0004.79,0004.00
2022-07-09 12:28:00,,0832.9,4.99,0.00,29.9,27.3,00.0,38.7,31.6,25.8,0000.0,0011.28,0004.80,0004.01
2022-07-09 12:29:00,,0833.0,5.01,0.00,29.9,27.4,00.0,38.7,31.5,25.8,0000.0,0011.24,0004.78,0003.99
2022-07-09 12:30:00,,0833.0,5.01,0.00,29.8,27.6,00.0,38.7,31.5,25.2,0000.0,0011.14,0004.75,0003.98
2022-07-09 12:31:00,,0833.0,5.00,0.00,29.8,27.7,00.0,38.7,31.5,24.9,0000.0,0011.40,0004.72,0003.97
2022-07-09 12:32:00,,0833.0,5.01,0.00,29.8,27.9,00.0,38.7,31.5,25.4,0000.0,0011.08,0004.66,0003.95
2022-07-09 12:33:00,,0833.0,4.99,0.00,29.8,28.0,00.0,38.7,31.5,25.4,0000.0,0010.85,0004.60,0003.94
2022-07-09 12:34:00,,0833.0,5.00,0.00,29.8,28.1,00.0,38.7,31.6,25.4,0000.0,0010.92,0004.57,0003.93
2022-07-09 12:35:00,,0833.1,5.00,0.00,29.8,28.3,00.0,38.7,31.6,25.0,0000.0,0010.33,0004.52,0003.92
2022-07-09 12:36:00,,0833.0,5.00,0.00,29.8,28.4,00.0,38.6,31.6,25.1,0000.0,0009.92,0004.51,0003.91
2022-07-09 12:37:00,,0833.0,5.00,0.00,29.8,28.4,00.0,38.6,31.7,25.3,0000.0,0009.99,0004.50,0003.90
2022-07-09 12:38:00,,0833.0,5.01,0.00,29.8,28.5,00.0,38.7,31.7,25.7,0000.0,0009.97,0004.51,0003.88
2022-07-09 12:39:00,,0833.1,5.01,0.00,29.9,28.6,00.0,38.7,31.7,25.5,0000.0,0009.72,0004.50,0003.87
2022-07-09 12:40:00,,0833.1,4.99,0.00,29.9,28.6,00.0,38.7,31.8,25.0,0000.0,0009.80,0004.51,0003.88
2022-07-09 12:41:00,,0833.1,5.00,0.00,29.9,28.7,00.0,38.7,31.8,25.3,0000.0,0009.68,0004.52,0003.88
2022-07-09 12:42:00,,0833.1,5.00,0.00,29.9,28.8,00.0,38.7,31.8,25.0,0000.0,0009.23,0004.52,0003.88
2022-07-09 12:43:00,,0833.1,4.99,0.00,29.9,28.8,00.0,38.7,31.8,24.7,0000.0,0009.08,0004.58,0003.88
2022-07-09 12:44:00,,0833.1,5.00,0.00,30.0,28.9,00.0,38.7,31.9,24.7,0000.0,0009.14,0004.62,0003.88
2022-07-09 12:45:00,,0833.1,5.00,0.00,30.0,28.9,00.0,38.7,31.9,24.7,0000.0,0009.15,0004.64,0003.88
2022-07-09 12:46:00,,0833.1,5.00,0.00,30.0,28.9,00.0,38.7,31.9,24.6,0000.0,0009.24,0004.67,0003.89
2022-07-09 12:47:00,,0833.1,5.00,0.00,30.0,29.0,00.0,38.8,31.9,24.5,0000.0,0009.30,0004.70,0003.89
2022-07-09 12:48:00,,0833.2,5.00,0.00,30.1,29.0,00.0,38.8,32.0,24.7,0000.0,0009.59,0004.75,0003.90
2022-07-09 12:49:00,,0833.1,5.00,0.00,30.1,29.1,00.0,38.8,32.0,25.1,0000.0,0010.34,0004.73,0003.90
2022-07-09 12:50:00,,0833.2,5.00,0.00,30.1,29.1,00.0,38.8,32.0,25.6,0000.0,0010.34,0004.73,0003.91
2022-07-09 12:51:00,,0833.2,5.00,0.00,30.1,29.1,00.0,38.8,32.0,26.3,0000.0,0010.40,0004.73,0003.91
2022-07-09 12:52:00,,0833.2,4.99,0.00,30.2,29.2,00.0,38.9,32.1,25.8,0000.0,0010.73,0004.72,0003.90
2022-07-09 12:53:00,,0833.2,5.01,0.00,30.2,29.1,00.0,38.9,32.1,25.1,0000.0,0010.78,0004.75,0003.92
2022-07-09 12:54:00,,0833.2,5.00,0.00,30.2,28.4,00.0,38.8,32.0,25.6,0000.0,0011.27,0004.76,0003.94
2022-07-09 12:55:00,,0833.2,5.01,0.00,30.1,27.7,00.0,38.8,31.8,26.7,0000.0,0011.36,0004.76,0003.96
2022-07-09 12:56:00,,0833.2,5.01,0.00,30.0,27.5,00.0,38.7,31.7,27.0,0000.0,0011.99,0004.78,0003.96
2022-07-09 12:57:00,,0833.2,4.98,0.00,30.0,27.5,00.0,38.7,31.6,27.6,0000.0,0012.04,0004.79,0003.96
2022-07-09 12:58:00,,0833.2,5.00,0.00,29.9,27.6,00.0,38.7,31.6,26.0,0000.0,0012.64,0004.82,0003.96
2022-07-09 12:59:00,,0833.1,5.00,0.00,29.9,27.8,00.0,38.7,31.6,26.0,0000.0,0012.73,0004.81,0003.96
